Weather History for Stanton, MN

Change the Weather History Date:

Friday, November 29, 2013

  Actual Average (KLVN) Record (KLVN)
Temperature  
Mean Temperature 20 °F -  
Max Temperature 34 °F 33 °F 64 °F (1998)
Min Temperature 6 °F 16 °F -15 °F (1985)
Degree Days  
Heating Degree Days 45    
Moisture  
Dew Point 14 °F    
Average Humidity 68    
Maximum Humidity 85    
Minimum Humidity 47    
Precipitation  
Precipitation 0.00 in - - ()
Sea Level Pressure  
Sea Level Pressure 30.36 in    
Wind  
Wind Speed 5 mph (South)    
Max Wind Speed 16 mph    
Max Gust Speed 22 mph    
Visibility 10 miles    
Events      
Averages and records for this station are not official NWS values.
T = Trace of Precipitation, MM = Missing Value Source: NWS Daily Summary

Daily Weather History Graph

Daily Weather History Graph

Search for Another Location

Airport:

Trip Planner

Search our weather history database for the weather conditions in past years. The results will help you decide how hot, cold, wet, or windy it might be!

Date:

Astronomy

Nov. 29, 2013 Rise Set
Actual Time 7:26 AM CST 4:34 PM CST
Civil Twilight 6:53 AM CST 5:07 PM CST
Nautical Twilight 6:17 AM CST 5:43 PM CST
Astronomical Twilight 5:42 AM CST 6:18 PM CST
Moon 3:24 AM CST (11/29) 2:26 PM CST (11/29)
Length of Visible Light 10h 13m
Length of Day
9h 08m
Waning Crescent, 14% of the Moon is Illuminated
Nov 29
Waning Crescent
Dec 2
New
Dec 9
First Quarter
Dec 17
Full
Dec 25
Last Quarter

Hourly Weather History & Observations

Time (CST) Temp. Windchill Dew Point Humidity Pressure Visibility Wind Dir Wind Speed Gust Speed Precip Events Conditions
12:12 AM 9.5 °F - 5.9 °F 85% 30.49 in 10.0 mi Calm Calm - N/A   Clear
12:32 AM 8.6 °F - 4.6 °F 84% 30.49 in 10.0 mi Calm Calm - N/A   Clear
12:52 AM 8.6 °F 2.0 °F 5.0 °F 85% 30.49 in 10.0 mi SSW 3.5 mph - N/A   Clear
1:12 AM 8.4 °F - 4.8 °F 85% 30.48 in 10.0 mi Calm Calm - N/A   Clear
1:32 AM 8.1 °F - 4.1 °F 84% 30.49 in 10.0 mi Calm Calm - N/A   Clear
1:52 AM 7.7 °F 1.0 °F 4.1 °F 85% 30.49 in 10.0 mi SSW 3.5 mph - N/A   Clear
2:12 AM 8.1 °F - 4.1 °F 84% 30.49 in 10.0 mi Calm Calm - N/A   Clear
2:32 AM 7.5 °F - 3.7 °F 85% 30.50 in 10.0 mi Calm Calm - N/A   Clear
2:52 AM 6.8 °F - 2.7 °F 83% 30.49 in 10.0 mi Calm Calm - N/A   Clear
3:12 AM 7.2 °F - 3.4 °F 85% 30.49 in 10.0 mi Calm Calm - N/A   Clear
3:32 AM 7.3 °F - 3.2 °F 83% 30.48 in 10.0 mi Calm Calm - N/A   Clear
3:52 AM 7.5 °F 0.8 °F 3.2 °F 82% 30.48 in 10.0 mi South 3.5 mph - N/A   Clear
4:12 AM 8.6 °F - 4.6 °F 84% 30.48 in 10.0 mi Calm Calm - N/A   Clear
4:32 AM 9.3 °F - 5.4 °F 84% 30.49 in 10.0 mi Calm Calm - N/A   Clear
4:52 AM 10.0 °F - 5.7 °F 83% 30.49 in 10.0 mi Calm Calm - N/A   Clear
5:12 AM 11.3 °F - 6.8 °F 82% 30.49 in 10.0 mi Calm Calm - N/A   Clear
5:32 AM 11.8 °F - 7.7 °F 83% 30.49 in 10.0 mi Calm Calm - N/A   Clear
5:52 AM 12.2 °F - 7.7 °F 82% 30.50 in 10.0 mi Calm Calm - N/A   Clear
6:12 AM 13.1 °F - 9.0 °F 84% 30.48 in 10.0 mi Calm Calm - N/A   Clear
6:32 AM 13.8 °F - 9.5 °F 83% 30.48 in 10.0 mi Calm Calm - N/A   Clear
6:52 AM 14.4 °F - 10.4 °F 84% 30.48 in 10.0 mi Calm Calm - N/A   Clear
7:12 AM 14.9 °F - 10.9 °F 84% 30.48 in 10.0 mi Calm Calm - N/A   Clear
7:32 AM 16.5 °F - 12.0 °F 82% 30.48 in 10.0 mi Calm Calm - N/A   Clear
7:52 AM 18.5 °F - 13.3 °F 80% 30.48 in 10.0 mi Calm Calm - N/A   Clear
8:13 AM 20.5 °F 15.6 °F 13.6 °F 75% 30.48 in 10.0 mi South 3.5 mph - N/A   Clear
8:32 AM 21.0 °F 14.6 °F 14.2 °F 75% 30.47 in 10.0 mi SSE 4.6 mph - N/A   Clear
8:52 AM 22.1 °F 14.7 °F 15.3 °F 75% 30.46 in 10.0 mi SSE 5.8 mph - N/A   Clear
9:12 AM 23.0 °F 12.4 °F 15.3 °F 72% 30.46 in 10.0 mi SSE 10.4 mph - N/A   Clear
9:32 AM 24.4 °F 14.2 °F 16.3 °F 71% 30.46 in 10.0 mi South 10.4 mph - N/A   Clear
9:52 AM 25.2 °F 15.7 °F 16.7 °F 70% 30.46 in 10.0 mi South 9.2 mph - N/A   Clear
10:12 AM 26.4 °F 16.0 °F 16.9 °F 67% 30.46 in 10.0 mi South 11.5 mph - N/A   Clear
10:32 AM 29.1 °F 18.9 °F 17.6 °F 62% 30.46 in 10.0 mi South 12.7 mph - N/A   Clear
10:52 AM 30.2 °F 18.9 °F 16.3 °F 56% 30.45 in 10.0 mi South 16.1 mph - N/A   Clear
11:12 AM 30.7 °F 19.6 °F 15.6 °F 54% 30.44 in 10.0 mi South 16.1 mph 21.9 mph N/A   Clear
11:32 AM 30.9 °F 20.7 °F 15.4 °F 53% 30.43 in 10.0 mi South 13.8 mph 19.6 mph N/A   Clear
11:52 AM 30.2 °F 20.8 °F 14.9 °F 53% 30.41 in 10.0 mi South 11.5 mph 16.1 mph N/A   Clear
12:12 PM 31.3 °F 23.9 °F 15.8 °F 53% 30.39 in 10.0 mi South 8.1 mph 18.4 mph N/A   Clear
12:32 PM 32.0 °F 22.5 °F 16.0 °F 52% 30.38 in 10.0 mi South 12.7 mph 17.3 mph N/A   Clear
12:52 PM 33.8 °F 26.4 °F 16.5 °F 49% 30.37 in 10.0 mi South 9.2 mph 17.3 mph N/A   Clear
1:12 PM 34.0 °F 25.0 °F 16.3 °F 49% 30.36 in 10.0 mi South 12.7 mph 19.6 mph N/A   Clear
1:32 PM 34.7 °F 25.9 °F 16.3 °F 47% 30.35 in 10.0 mi South 12.7 mph 20.7 mph N/A   Clear
1:52 PM 34.3 °F 24.6 °F 16.3 °F 48% 30.34 in 10.0 mi South 15.0 mph - N/A   Clear
2:12 PM 33.8 °F 24.3 °F 16.3 °F 49% 30.33 in 10.0 mi South 13.8 mph 18.4 mph N/A   Clear
2:32 PM 33.1 °F 23.4 °F 16.5 °F 51% 30.31 in 10.0 mi South 13.8 mph - N/A   Clear
2:52 PM 32.5 °F 22.7 °F 17.1 °F 53% 30.30 in 10.0 mi South 13.8 mph 21.9 mph N/A   Clear
3:12 PM 32.5 °F 23.2 °F 17.2 °F 53% 30.30 in 10.0 mi SSE 12.7 mph - N/A   Clear
3:32 PM 32.4 °F 22.5 °F 16.9 °F 53% 30.28 in 10.0 mi South 13.8 mph - N/A   Clear
3:52 PM 32.0 °F 23.0 °F 17.2 °F 55% 30.27 in 10.0 mi South 11.5 mph 18.4 mph N/A   Clear
4:12 PM 32.0 °F 23.6 °F 17.4 °F 55% 30.27 in 10.0 mi South 10.4 mph - N/A   Clear
4:32 PM 31.8 °F 22.3 °F 17.4 °F 55% 30.26 in 10.0 mi SSE 12.7 mph 16.1 mph N/A   Clear
4:52 PM 31.6 °F 21.6 °F 17.4 °F 56% 30.25 in 10.0 mi SSE 13.8 mph 19.6 mph N/A   Clear
5:12 PM 31.6 °F 21.6 °F 17.8 °F 57% 30.24 in 10.0 mi SSE 13.8 mph 17.3 mph N/A   Clear
5:32 PM 31.1 °F 22.4 °F 18.3 °F 59% 30.23 in 10.0 mi SSE 10.4 mph 17.3 mph N/A   Clear
5:52 PM 30.7 °F 22.0 °F 19.0 °F 62% 30.23 in 10.0 mi South 10.4 mph - N/A   Clear
6:12 PM 30.7 °F 21.4 °F 19.2 °F 62% 30.22 in 10.0 mi SSE 11.5 mph 18.4 mph N/A   Clear
6:32 PM 30.4 °F 21.0 °F 19.6 °F 64% 30.21 in 10.0 mi SSE 11.5 mph 18.4 mph N/A   Clear
6:52 PM 30.2 °F 20.2 °F 19.9 °F 66% 30.21 in 10.0 mi South 12.7 mph 19.6 mph N/A   Clear
7:12 PM 30.0 °F 20.5 °F 20.1 °F 67% 30.21 in 10.0 mi SSE 11.5 mph 18.4 mph N/A   Scattered Clouds
7:32 PM 30.2 °F 20.8 °F 20.3 °F 67% 30.21 in 10.0 mi South 11.5 mph - N/A   Scattered Clouds
7:52 PM 30.6 °F 20.2 °F 20.3 °F 66% 30.20 in 10.0 mi South 13.8 mph 19.6 mph N/A   Overcast
8:12 PM 31.1 °F 21.4 °F 20.3 °F 64% 30.19 in 10.0 mi South 12.7 mph 19.6 mph N/A   Overcast
8:32 PM 31.5 °F 22.9 °F 20.7 °F 64% 30.18 in 10.0 mi South 10.4 mph - N/A   Overcast
8:52 PM 31.8 °F 23.3 °F 20.5 °F 63% 30.18 in 10.0 mi South 10.4 mph - N/A   Overcast
9:12 PM 32.0 °F 23.6 °F 20.3 °F 62% 30.18 in 10.0 mi South 10.4 mph 18.4 mph N/A   Mostly Cloudy
9:32 PM 31.1 °F 20.9 °F 20.1 °F 64% 30.18 in 10.0 mi South 13.8 mph 19.6 mph N/A   Scattered Clouds
9:51 PM 30.6 °F 21.2 °F 20.1 °F 65% 30.17 in 10.0 mi South 11.5 mph 18.4 mph N/A   Scattered Clouds
10:12 PM 30.6 °F 21.2 °F 20.1 °F 65% 30.17 in 10.0 mi South 11.5 mph 17.3 mph N/A   Scattered Clouds
10:32 PM 30.2 °F 21.3 °F 20.3 °F 67% 30.16 in 10.0 mi South 10.4 mph - N/A   Scattered Clouds
10:52 PM 30.7 °F 22.6 °F 20.5 °F 66% 30.15 in 10.0 mi South 9.2 mph - N/A   Mostly Cloudy
11:12 PM 31.1 °F 23.7 °F 20.7 °F 65% 30.15 in 10.0 mi South 8.1 mph - N/A   Overcast
11:32 PM 31.5 °F 24.2 °F 21.0 °F 65% 30.15 in 10.0 mi South 8.1 mph - N/A   Overcast
11:52 PM 31.6 °F 25.1 °F 21.2 °F 65% 30.14 in 10.0 mi South 6.9 mph - N/A   Overcast